Location: Sternwarte ZA, Rosenfeld-Brittheim
(48.2889°N, 8.6789°E)
Time: 19:44:59
(UTC+01:00)

ISS - Pass Details

Date: 13 December 2017
Orbit: 402 x 407 km, 51.6° (Epoch: 11 December)

Event Time Altitude Azimuth Distance (km) Brightness Sun altitude
Rises 19:38:16 0° 282° (WNW) 2,329 1.1 -30.0°
Reaches altitude 10° 19:41:21 10° 250° (WSW) 1,462 -0.2 -30.5°
Enters shadow 19:41:44 11° 244° (WSW) 1,403 -0.4 -30.5°
